STARLINK-11161 [DTC] (60124 NORAD) Tracking and Keplerian Element Data

This shows tracking and keplerian element data for the satellite.

Feedback or suggestion? Click here.




ElementValue
Catalog60124
NameSTARLINK-11161 [DTC]
Epoch Orbit1739
Epoch Day286.54915405
Epoch Year2024
RAAN231.2342
Inclination53.1555
Eccentricity0.0002197
Argument of Perigee78.1217
Mean Anonmoly282.0047
Mean Motion15.69767525
Decay Rate0.00081794
L11 60124U 24118M 24286.54915405 .00081794 00000+0 67171-3 0 9997
L22 60124 53.1555 231.2342 0002197 78.1217 282.0047 15.69767525 17397



Live tracking and technical data element details for STARLINK-11161 [DTC] (NORAD 60124). STARLINK-11161 [DTC] can be tracked NOW for your location showing map with azimuth and elevation plus other details from your city location.







IsCatalogInMostPopularTable: catalog: 60124, numindb: 10
Update: records affected: 1



GetName: 60124 STARLINK-11161 [DTC]

Hit Count: updated at: Thu, 23 Jan 2025 15:05:11 GMT